Skip Page Navigation
NASA JPL Caltech
NASA Logo - Jet Propulsion Laboratory + View the NASA Portal
+ Near-Earth Object (NEO) Program
Search JPL
JPL Home Earth Solar System Stars & Galaxies Technology
JPL Solar System Dynamics
BODIES ORBITS EPHEMERIDES TOOLS PHYSICAL DATA DISCOVERY FAQ SITE MAP
JPL Small-Body Database Browser
Search: [ help ]  
27466 Cargibaysal (2000 GJ65)
Classification: Main-belt Asteroid          SPK-ID: 2027466
Ephemeris | Orbit Diagram | Orbital Elements | Physical Parameters | Discovery Circumstances | Close-Approach Data ]

[ show orbit diagram ]
Orbital Elements at Epoch 2457000.5 (2014-Dec-09.0) TDB
Reference: JPL 7 (heliocentric ecliptic J2000)
 Element Value Uncertainty (1-sigma)   Units 
e .1366764445525384 8.2511e-08  
a 2.554123944753861 1.7682e-08 AU
q 2.205035365038399 2.1708e-07 AU
i 9.422694016422099 9.9812e-06 deg
node 197.5359348124647 3.0134e-05 deg
peri 240.9835877594127 4.9898e-05 deg
M 330.6135914733847 3.7988e-05 deg
tp 2457122.204150914325
(2015-Apr-09.70415091)
0.0001578 JED
period 1490.944165207363
4.08
1.5483e-05
4.239e-08
d
yr
n .2414577342337501 2.5075e-09 deg/d
Q 2.903212524469322 2.0099e-08 AU
  Orbit Determination Parameters
   # obs. used (total)      926  
   data-arc span      10709 days (29.32 yr)  
   first obs. used      1985-08-23  
   last obs. used      2014-12-18  
   planetary ephem.      DE431  
   SB-pert. ephem.      SB431-BIG16  
   condition code      0  
   fit RMS      .47022  
   data source      ORB  
   producer      Otto Matic  
   solution date      2015-Jan-08 03:11:08  

Additional Information
 Earth MOID = 1.23686 AU 
 T_jup = 3.407 
[ show covariance matrix ]

Ephemeris | Orbit Diagram | Orbital Elements | Physical Parameters | Discovery Circumstances | Close-Approach Data ]

Physical Parameter Table
Parameter Symbol Value Units Sigma Reference Notes
absolute magnitude H 14.2 mag n/a MPO250475  

27466 Cargibaysal           Discovered 2000 Apr. 5 by the Lincoln Laboratory Near-Earth Asteroid Research Team at Socorro.
Cargi Baysal mentored a finalist in the 2011 Broadcom MASTERS, a math and science competition for middle-school students. He teaches at the School of Science and Technology, Corpus Christi, Texas.
NOTE: some special characters may not display properly (any characters within {} are an attempt to place the proper accent above a character)
Reference: 20111210/MPCPages.arcLast Updated: 2011-12-12

[ show close-approach data ]
Alternate Designations
 2000 GJ65 = 1985 QS3 = 1998 XT81 
Ephemeris | Orbit Diagram | Orbital Elements | Physical Parameters | Discovery Circumstances | Close-Approach Data ]
ABOUT SSD CREDITS/AWARDS PRIVACY/COPYRIGHT GLOSSARY LINKS
FirstGov 2015-Feb-02 00:15 UT
(server date/time)  
NASA Home Page
Site Manager:   Donald K. Yeomans
Webmaster  Alan B. Chamberlin